EW7060 Weather Reports


Display with metric or nautical units.
time (UTC)temp
F
wind
direction
speed
MPH
gust
MPH
rain 1hr
in
rain 24hr
in
rain mn
in
humidity
%
barometer
mb
20260507204605 66 194 1.0 5.0 0.00 0.09 0.01 43 1010.3
20260507203601 67 302 2.0 8.0 0.00 0.09 0.01 42 1010.1
20260507202544 67 181 1.0 5.0 0.00 0.09 0.01 45 1010.3
20260507201520 65 186 1.0 4.0 0.00 0.09 0.01 45 1010.4
20260507200544 66 90 2.0 4.0 0.00 0.09 0.01 44 1010.4
20260507195520 66 141 2.0 5.0 0.00 0.09 0.01 47 1010.6
20260507194544 64 179 2.0 6.0 0.00 0.09 0.01 49 1010.7
20260507193519 63 173 1.0 4.0 0.00 0.09 0.01 44 1010.8
20260507192545 63 68 1.0 3.0 0.00 0.09 0.01 40 1010.8
20260507191540 63 70 1.0 2.0 0.00 0.09 0.01 39 1010.9
20260507190545 64 45 1.0 3.0 0.00 0.09 0.01 38 1011.1
20260507185600 67 54 2.0 5.0 0.00 0.09 0.01 33 1011.2
20260507184544 69 35 2.0 4.0 0.00 0.09 0.01 33 1011.2
20260507183520 69 68 2.0 4.0 0.00 0.09 0.01 34 1011.1
20260507182544 68 60 1.0 3.0 0.00 0.09 0.01 34 1011.3
20260507181520 69 5 1.0 3.0 0.00 0.09 0.01 35 1011.4
20260507180544 0 0.0 0.0 0.00 0.09 0.01 1011.5
20260507175520 65 100 2.0 4.0 0.00 0.09 0.01 37 1011.7
20260507174544 64 106 2.0 5.0 0.00 0.09 0.01 38 1011.8
20260507173519 65 20 3.0 5.0 0.00 0.09 0.01 42 1011.9
20260507172544 64 227 1.0 4.0 0.00 0.09 0.01 42 1012.2
20260507171520 64 20 2.0 4.0 0.00 0.09 0.01 41 1012.4
20260507170604 63 114 1.0 5.0 0.00 0.09 0.01 41 1012.7
20260507165520 61 144 2.0 2.0 0.00 0.09 0.01 45 1012.8
20260507164544 61 225 1.0 2.0 0.00 0.09 0.01 46 1012.9
20260507163540 0 0.0 0.0 0.00 0.09 0.01 1013.3
20260507162545 59 61 1.0 2.0 0.00 0.09 0.01 44 1013.3
20260507161520 61 180 1.0 3.0 0.00 0.09 0.01 48 1013.3
20260507160543 58 45 0.0 2.0 0.00 0.09 0.01 48 1013.5
20260507155520 57 45 0.0 2.0 0.00 0.09 0.01 52 1013.6
20260507154544 56 64 1.0 2.0 0.00 0.09 0.01 53 1013.6
20260507153519 56 72 1.0 2.0 0.00 0.09 0.01 53 1013.7
20260507152544 56 24 1.0 4.0 0.00 0.09 0.01 54 1013.9
20260507151520 56 344 1.0 3.0 0.00 0.12 0.01 53 1014.0
20260507150544 55 45 1.0 5.0 0.00 0.12 0.01 53 1014.1
20260507145540 55 159 1.0 4.0 0.00 0.12 0.01 56 1014.2
20260507144544 55 241 0.0 2.0 0.00 0.12 0.01 59 1014.3
20260507143520 55 135 0.0 2.0 0.00 0.12 0.01 67 1014.4
20260507142544 54 90 0.0 0.0 0.00 0.12 0.01 70 1014.4
20260507141539 54 90 0.0 0.0 0.00 0.12 0.01 70 1014.5
20260507140544 53 90 0.0 0.0 0.00 0.13 0.01 69 1014.6
20260507135520 53 90 0.0 0.0 0.00 0.14 0.01 70 1014.6
20260507134544 53 45 0.0 2.0 0.00 0.15 0.01 69 1014.8
20260507133520 53 45 0.0 2.0 0.00 0.15 0.01 68 1015.0
20260507132543 53 338 0.0 2.0 0.00 0.17 0.01 70 1015.0
20260507131519 53 45 0.0 0.0 0.00 0.18 0.01 70 1014.9
20260507130543 52 45 0.0 1.0 0.00 0.18 0.01 67 1014.8
20260507125520 52 52 1.0 2.0 0.00 0.22 0.01 70 1014.7
20260507124545 52 45 0.0 2.0 0.00 0.22 0.01 75 1014.7
20260507123519 52 90 0.0 0.0 0.00 0.22 0.01 79 1014.8
20260507122605 52 90 0.0 0.0 0.00 0.22 0.01 78 1014.8
20260507121520 52 45 0.0 0.0 0.00 0.22 0.01 79 1014.7
20260507120604 52 45 0.0 0.0 0.00 0.22 0.01 77 1014.7
20260507115520 53 90 0.0 2.0 0.00 0.22 0.01 77 1014.7
20260507114544 53 72 1.0 2.0 0.00 0.22 0.01 79 1014.6
20260507113519 53 45 0.0 0.0 0.00 0.22 0.01 81 1014.2
20260507112543 53 45 0.0 0.0 0.00 0.22 0.01 84 1014.2
20260507111519 52 90 0.0 1.0 0.00 0.22 0.01 87 1014.0
20260507110544 52 45 0.0 0.0 0.00 0.22 0.01 88 1014.0
20260507105519 52 0 0.0 0.0 0.00 0.22 0.01 89 1014.2
20260507104620 52 0 0.0 0.0 0.00 0.22 0.01 90 1014.0
20260507103520 52 0 0.0 0.0 0.00 0.22 0.01 90 1013.8
20260507102544 52 0 0.0 0.0 0.00 0.22 0.01 90 1013.9
20260507101601 52 0 0.0 0.0 0.00 0.22 0.01 90 1013.8
20260507100545 0 0.0 0.0 0.00 0.22 0.01 1013.7
20260507095520 52 45 0.0 0.0 0.00 0.22 0.01 89 1013.6
20260507094543 52 315 0.0 1.0 0.00 0.22 0.01 89 1013.5
20260507093539 52 0 0.0 1.0 0.00 0.22 0.01 89 1013.7
20260507092543 52 315 0.0 1.0 0.00 0.22 0.01 90 1013.4
20260507091519 52 315 0.0 2.0 0.00 0.22 0.01 89 1013.1
20260507090544 52 315 0.0 0.0 0.00 0.22 0.01 89 1013.1
20260507085539 52 315 0.0 0.0 0.00 0.22 0.01 89 1013.2
20260507084544 52 315 0.0 0.0 0.00 0.22 0.01 89 1013.3
20260507083542 53 0 0.0 1.0 0.00 0.22 0.01 88 1013.3
20260507082605 53 225 0.0 0.0 0.00 0.22 0.01 87 1013.2
20260507081539 53 90 0.0 1.0 0.00 0.22 0.01 87 1013.2
20260507080543 0 0.0 0.0 0.00 0.22 0.01 1013.1
20260507075519 53 135 0.0 2.0 0.00 0.22 0.01 87 1012.8
20260507074605 53 103 1.0 2.0 0.00 0.22 0.01 87 1012.4
20260507073520 53 329 1.0 2.0 0.00 0.22 0.01 87 1012.6
20260507072543 53 90 0.0 2.0 0.00 0.22 0.01 86 1012.6
20260507071519 53 105 1.0 2.0 0.00 0.22 0.01 87 1012.4
20260507070604 53 108 0.0 2.0 0.00 0.22 0.01 88 1012.6
20260507065519 53 62 1.0 3.0 0.00 0.22 0.01 89 1012.6
20260507064543 53 48 1.0 3.0 0.00 0.22 0.01 90 1012.4
20260507063520 54 83 1.0 5.0 0.00 0.22 0.01 90 1012.6
20260507062543 54 126 1.0 4.0 0.00 0.22 0.01 90 1012.8
20260507061520 54 138 1.0 3.0 0.00 0.22 0.01 90 1012.9
20260507060543 0 0.0 0.0 0.01 0.22 0.01 1012.8
20260507055519 54 338 1.0 2.0 0.01 0.22 0.01 90 1012.7
20260507054603 54 90 0.0 2.0 0.01 0.22 0.01 90 1012.7
20260507053520 55 0 0.0 2.0 0.01 0.22 0.01 90 1012.8
20260507052604 55 360 1.0 3.0 0.01 0.22 0.01 91 1012.6
20260507051519 55 54 2.0 4.0 0.01 0.22 0.01 93 1012.7
20260507050543 55 55 1.0 3.0 0.00 0.21 0.00 94 1012.8
20260507045519 56 19 1.0 2.0 0.00 0.21 0.00 94 1012.3
20260507044543 57 10 0.0 2.0 0.00 0.21 0.00 93 1012.6
20260507043559 57 180 0.0 2.0 0.00 0.21 0.00 93 1013.1
20260507042600 57 345 0.0 2.0 0.00 0.21 0.00 92 1012.2
20260507041520 58 225 1.0 2.0 0.00 0.21 0.00 90 1012.7
20260507040542 0 0.0 0.0 0.01 0.21 0.00 1012.8
20260507035559 59 90 0.0 2.0 0.01 0.21 0.21 89 1012.7
20260507034543 59 353 0.0 2.0 0.01 0.21 0.21 87 1012.2
20260507033519 59 0 0.0 0.0 0.01 0.21 0.21 87 1012.0
20260507032544 59 124 1.0 2.0 0.01 0.21 0.21 88 1012.0
20260507031520 59 113 1.0 2.0 0.01 0.21 0.21 88 1012.0
20260507030543 60 164 1.0 3.0 0.00 0.20 0.20 87 1012.1
20260507025519 60 158 0.0 2.0 0.00 0.20 0.20 86 1012.1
20260507024544 61 152 1.0 3.0 0.00 0.20 0.20 82 1011.4
20260507023539 61 111 2.0 7.0 0.00 0.20 0.20 81 1011.3
20260507022543 61 108 2.0 7.0 0.00 0.20 0.20 82 1011.7
20260507021520 61 105 2.0 5.0 0.00 0.20 0.20 85 1011.4
20260507020543 62 98 2.0 5.0 0.00 0.20 0.20 89 1011.4
20260507015519 62 158 1.0 5.0 0.00 0.20 0.20 91 1011.2
20260507014543 62 135 1.0 4.0 0.00 0.20 0.20 92 1011.3
20260507013539 62 135 0.0 2.0 0.00 0.20 0.20 92 1011.2
20260507012543 63 0 0.0 2.0 0.00 0.20 0.20 91 1011.3
20260507011520 63 122 1.0 2.0 0.00 0.20 0.20 90 1011.8
20260507010605 64 135 1.0 3.0 0.00 0.20 0.20 91 1011.7
20260507005519 64 90 1.0 2.0 0.00 0.20 0.20 91 1011.5
20260507004543 64 90 0.0 2.0 0.00 0.20 0.20 91 1011.5
20260507003520 65 45 1.0 2.0 0.00 0.20 0.20 93 1011.2
20260507002543 65 180 0.0 2.0 0.00 0.20 0.20 93 1011.4
20260507001520 65 270 0.0 3.0 0.07 0.20 0.20 92 1011.3
20260507000543 65 45 0.0 2.0 0.07 0.20 0.20 92 1010.9
20260506235520 65 225 0.0 2.0 0.07 0.20 0.20 91 1010.9
20260506234543 65 315 0.0 2.0 0.07 0.20 0.20 90 1010.8
20260506233519 66 198 1.0 4.0 0.07 0.20 0.20 87 1010.9
20260506232543 67 315 0.0 1.0 0.07 0.20 0.20 85 1010.6
20260506231519 0 0.0 0.0 0.00 0.13 0.13 1010.4
20260506230559 0 0.0 0.0 0.00 0.13 0.13 1010.1
20260506225521 0 0.0 0.0 0.00 0.13 0.13 1010.1
20260506224543 0 0.0 0.0 0.00 0.13 0.13 1010.0
20260506223559 0 0.0 0.0 0.00 0.13 0.13 1010.1
20260506222559 0 0.0 0.0 0.00 0.13 0.13 1009.8
20260506221540 0 0.0 0.0 0.00 0.13 0.13 1009.9
20260506220621 70 225 2.0 3.0 0.00 0.13 0.13 75 1009.8
20260506215559 0 0.0 0.0 0.00 0.13 0.13 1009.8
20260506214600 0 0.0 0.0 0.00 0.13 0.13 1009.9
20260506213559 0 0.0 0.0 0.00 0.13 0.13 1009.9
20260506212600 0 0.0 0.0 0.00 0.13 0.13 1009.8
20260506211601 0 0.0 0.0 0.00 0.13 0.13 1009.8
20260506210559 0 0.0 0.0 0.00 0.13 0.13 1009.7
20260506205601 0 0.0 0.0 0.00 0.13 0.13 1009.7